Location: Brno
(49.2000°N, 16.6330°E)
Time: 02:15:02
(UTC+02:00)

Cosmos 332 Rocket - Visible Passes

Search period start: 26 September 2017 00:00
Search period end: 06 October 2017 00:00
Orbit: 683 x 704 km, 74.0° (Epoch: 25 September)

Date Brightness Start Highest point End Pass type
(mag) Time Alt. Az. Time Alt. Az. Time Alt. Az.
26 Sep 6.2 02:53:41 10° N 02:57:19 21° NE 03:00:55 10° E visible
26 Sep 3.6 04:33:28 10° NNW 04:38:16 68° WSW 04:43:01 10° SSE visible
26 Sep 6.8 20:44:32 10° WNW 20:46:56 13° NW 20:49:20 10° NNW visible
27 Sep 6.9 01:56:30 10° NNE 01:57:09 10° NE 01:57:50 10° NE visible
27 Sep 4.6 03:34:12 10° NNW 03:38:53 49° ENE 03:39:49 42° E visible
27 Sep 4.9 05:15:12 10° NW 05:23:56 - SSW 05:18:03 22° W visible
27 Sep 6.0 19:42:47 10° WSW 19:46:56 27° NW 19:51:05 10° N visible
28 Sep 6.1 02:35:22 10° N 02:38:12 21° NE 02:38:12 21° NE visible
28 Sep 5.6 04:15:16 10° NNW 04:16:44 20° NNW 04:16:44 20° NNW visible
28 Sep 6.8 20:26:42 10° WNW 20:28:48 13° NW 20:30:53 10° NNW visible
29 Sep 6.9 01:37:41 10° NNE 01:38:21 11° NNE 01:38:21 11° NNE visible
29 Sep 6.1 03:15:56 10° NNW 03:16:57 16° NNW 03:16:57 16° NNW visible
29 Sep 6.1 19:24:44 10° WSW 19:28:46 25° NW 19:32:47 10° N visible
30 Sep 6.7 02:17:04 10° N 02:17:38 12° N 02:17:38 12° N visible
30 Sep 6.8 20:08:56 10° WNW 20:10:39 12° NW 20:12:23 10° NNW visible
01 Oct 6.2 19:06:41 10° WSW 19:10:34 23° NW 19:14:28 10° N visible
02 Oct 6.8 19:51:16 10° NW 19:52:31 11° NW 19:53:47 10° NNW visible
04 Oct 6.9 19:33:57 10° NW 19:34:24 10° NW 19:34:50 10° NNW visible
